Wind_Speed
5 4 4 4 5 6 7 9 10 11 11 11 10 9 8 7 6 5 5 7 8 9 10 11 12 13 14 15 17 18 20 22 24 26 27 28 29 31 32 33 34 35 35 36 37 38 39 40 41
8 8 9 8 9 10 10 11 11 11 10 9 8 7 6 5 5 6 8 9 10 11 12 13 14 15 16 18 20 22 24 26 27 28 30 31 32 33 34 34 35 36 37 38 39 40 41 42 43
13 13 13 12 12 11 11 11 10 9 7 6 5 5 5 6 7 8 10 11 12 13 14 15 16 18 19 22 23 25 27 28 30 31 32 33 34 34 35 36 37 38 39 40 41 42 43 45 46
14 14 13 13 11 11 10 8 7 6 5 4 5 6 7 8 9 10 12 13 13 14 15 17 19 20 22 24 26 28 29 31 32 33 33 34 34 35 36 37 39 40 42 43 45 46 47 49 50
12 12 11 9 8 8 7 5 4 4 4 5 6 7 9 10 11 13 14 15 15 16 18 20 21 23 25 27 28 30 31 32 32 33 33 35 36 37 38 40 41 43 45 47 49 50 52 53 55
10 8 7 5 5 5 4 4 4 5 6 8 9 10 10 11 13 14 16 17 18 19 20 22 24 26 27 29 30 31 32 32 33 34 35 37 38 39 41 43 45 47 49 51 53 55 57 59 61
6 5 3 3 4 5 5 6 8 8 9 10 12 13 12 13 14 15 17 18 19 21 23 24 26 28 29 30 31 32 33 34 35 36 37 39 41 42 44 46 48 50 53 56 58 60 62 65 67
3 3 4 6 7 8 9 10 11 12 11 12 14 14 13 14 15 16 17 19 20 22 24 25 26 28 29 30 31 33 34 36 37 38 40 41 43 45 46 49 51 54 57 60 63 65 68 72 75
7 7 9 10 11 12 12 12 12 13 12 13 14 14 14 14 15 17 18 19 21 22 23 25 26 27 29 31 32 34 36 38 39 41 42 44 45 47 49 52 54 57 60 64 67 70 74 78 82
11 12 12 13 14 14 13 12 12 12 11 11 12 13 14 14 15 16 18 19 20 22 23 24 26 28 30 32 34 36 38 40 41 43 45 46 48 49 52 54 57 60 63 67 71 75 79 83 88
13 12 12 12 12 12 11 10 10 10 10 11 12 12 13 14 14 16 17 18 20 21 23 25 27 28 30 33 35 37 39 41 43 45 47 48 50 52 54 57 60 63 66 70 74 78 83 88 94
12 11 10 10 9 10 10 9 9 9 10 11 12 11 12 13 14 15 16 17 19 21 23 25 27 29 31 34 36 38 41 43 44 46 48 49 51 53 56 58 61 65 68 72 76 81 87 93 99
11 10 9 8 8 8 8 9 9 10 11 11 12 12 12 12 13 14 15 17 19 21 23 25 27 30 32 34 36 39 41 43 44 46 48 50 52 54 57 59 63 66 70 74 79 85 91 96 101
10 9 8 7 7 8 8 9 9 9 9 9 10 11 11 12 12 14 15 17 20 22 24 26 28 30 32 34 37 39 41 43 45 47 48 50 52 54 57 60 64 67 71 76 82 88 94 98 99
8 8 7 7 7 8 9 8 7 7 7 7 8 9 10 11 13 15 17 19 21 23 25 27 29 31 33 35 37 40 42 44 46 47 49 51 53 55 58 61 65 69 74 79 85 91 94 95 94
8 7 7 7 7 7 8 7 6 6 6 6 7 8 10 12 14 16 18 20 23 25 27 29 31 32 34 36 38 41 43 46 48 49 51 52 54 56 59 63 67 71 76 82 88 92 93 91 88
8 8 8 7 7 7 7 6 6 5 5 6 7 9 10 12 14 16 18 21 23 26 28 30 33 34 36 38 40 42 45 48 50 52 53 54 56 58 61 64 68 73 79 85 89 91 90 87 84
8 8 8 9 8 7 6 6 6 5 6 7 8 9 10 12 13 16 18 20 23 26 29 32 34 36 38 39 42 44 47 50 53 55 56 57 58 60 62 66 70 75 81 86 89 88 86 83 80
10 9 9 9 8 8 7 7 6 6 7 8 9 10 11 12 14 16 18 21 24 27 30 33 35 38 40 42 44 46 49 52 55 58 60 60 61 62 64 68 72 78 83 86 87 86 83 79 78
12 11 10 10 9 9 9 9 9 9 9 10 11 11 12 13 15 17 20 22 25 28 31 34 37 39 42 44 46 48 51 54 57 60 62 63 64 64 66 70 74 79 84 86 85 83 80 77 76
14 13 13 12 12 12 12 12 12 12 12 13 14 14 14 15 17 19 22 24 27 30 32 35 38 41 44 46 48 50 53 56 59 62 64 66 66 67 69 72 76 81 84 84 83 80 78 75 73
16 16 15 15 15 15 15 15 15 15 16 16 17 18 18 18 20 22 24 27 29 31 34 37 40 43 46 48 50 52 55 57 60 63 66 68 69 69 70 74 77 81 83 83 80 78 76 75 73
18 19 18 18 19 19 19 19 17 18 19 20 21 22 22 22 23 25 28 30 32 34 36 38 41 44 47 50 52 54 56 58 61 65 67 69 70 71 72 75 78 81 82 80 78 75 74 74 73
21 22 22 22 23 22 21 23 19 21 22 23 24 25 26 27 27 29 31 33 35 37 39 41 43 45 48 51 53 56 58 60 62 65 68 70 72 73 74 76 78 80 80 78 75 73 72 72 72
23 25 26 26 26 25 25 26 22 24 25 26 26 28 29 30 31 32 34 36 38 40 42 43 45 47 49 51 54 57 59 61 63 66 69 71 73 74 75 76 78 79 78 76 74 71 71 70 70
25 27 29 31 30 29 29 29 25 26 28 28 29 31 32 33 34 35 36 38 40 42 44 45 47 48 50 52 55 57 60 62 64 67 70 72 73 74 75 76 78 78 77 75 72 70 69 69 69
27 29 31 34 35 35 34 32 28 28 30 31 32 34 35 35 36 37 38 40 42 44 46 47 49 50 51 53 55 58 60 63 65 68 71 73 74 75 75 76 77 77 75 73 70 69 68 68 67
30 31 33 36 39 39 38 35 31 30 32 34 35 36 37 38 39 39 40 42 43 45 47 49 50 51 52 54 55 58 61 63 66 69 71 73 74 75 76 76 76 76 74 72 69 67 66 66 65
30 32 34 37 41 43 44 38 32 33 36 37 38 40 40 40 41 42 43 44 45 47 49 51 52 53 54 55 56 58 61 64 66 69 72 74 74 75 75 75 75 75 73 71 68 66 65 64 63
31 32 35 39 41 45 48 42 32 35 38 40 42 43 43 42 42 43 44 46 47 49 50 52 53 54 55 55 56 58 61 64 67 69 72 74 74 75 75 75 75 74 72 70 67 65 64 63 61
Wind_Direction
113 120 117 120 122 120 115 113 108 105 103 103 100 95 88 77 62 37 9 353 344 336 331 326 321 317 314 312 310 308 307 307 306 304 303 302 301 299 298 297 296 295 294 292 291 289 288 286 285
98 100 101 102 107 111 109 106 101 99 97 92 86 79 67 48 23 1 346 339 332 327 323 319 316 313 311 309 307 306 306 305 304 303 302 301 300 299 298 297 296 296 295 293 292 290 289 287 285
95 98 97 101 104 102 101 97 95 90 83 71 59 42 24 11 352 339 331 326 322 319 317 314 311 309 308 307 306 306 305 304 303 302 301 300 299 299 299 298 298 297 296 295 293 291 289 287 285
97 97 99 101 103 99 95 91 86 75 58 35 15 360 351 344 333 323 319 316 314 312 310 308 307 306 306 305 305 304 304 303 302 302 301 301 300 300 300 300 299 299 298 297 295 293 291 289 288
95 94 93 96 96 94 88 76 60 33 3 347 338 332 328 326 320 315 312 310 308 307 306 306 306 306 305 305 304 304 303 303 302 302 302 302 302 303 302 302 301 300 299 298 297 295 293 291 289
95 92 86 73 60 58 47 17 350 339 328 322 319 318 318 315 312 310 308 307 307 307 307 307 307 307 307 307 306 305 305 305 305 305 305 305 305 304 304 303 302 301 301 300 299 297 295 293 291
80 69 59 13 350 346 339 327 319 318 316 310 309 311 313 310 308 307 306 306 306 307 308 309 309 309 309 309 309 309 309 308 308 307 307 307 306 305 305 304 304 303 302 301 300 298 297 295 293
11 347 327 316 315 314 313 311 309 308 308 303 301 305 307 306 306 306 306 306 307 308 309 311 311 312 313 313 313 313 312 311 310 309 308 308 307 306 306 306 305 304 304 302 301 300 299 298 296
315 309 307 305 305 305 306 305 304 303 301 298 298 301 304 305 306 307 308 309 310 312 314 315 317 318 318 318 317 317 316 314 313 311 310 309 308 308 307 307 306 306 305 304 303 303 302 301 299
301 299 299 299 300 301 302 303 301 299 298 296 297 301 304 307 309 310 311 314 316 318 320 322 324 324 323 322 321 320 319 317 315 314 312 311 310 309 308 308 307 307 306 306 305 304 304 303 301
296 295 295 295 297 299 301 302 300 298 298 297 300 304 307 311 313 316 317 320 322 324 327 329 329 329 328 327 326 324 322 320 317 315 314 312 311 310 309 309 308 307 307 306 306 305 305 304 302
300 299 297 296 297 299 300 301 301 301 302 304 308 313 315 318 321 323 324 326 328 331 332 333 333 333 332 331 329 328 325 322 320 317 315 313 312 311 309 309 308 308 307 307 307 306 306 305 303
301 301 300 299 299 299 300 303 306 307 310 313 318 322 324 327 330 331 331 332 334 336 337 337 336 336 336 335 334 332 329 326 323 319 317 315 313 311 310 310 309 308 308 308 308 308 307 306 304
301 300 299 300 299 299 301 306 310 312 315 318 322 326 330 334 337 338 338 339 340 340 339 338 338 338 339 338 337 336 333 330 326 323 320 317 315 313 312 311 310 310 310 310 310 310 309 308 306
298 297 298 299 299 301 306 314 318 315 319 323 327 333 338 342 343 344 344 343 342 340 339 338 338 338 339 338 338 337 336 334 331 327 324 320 317 315 314 313 312 312 312 313 313 313 312 311 308
294 295 296 298 301 303 306 315 318 322 328 333 338 343 346 348 348 347 346 345 344 342 340 338 337 338 338 338 338 338 338 337 335 332 328 324 320 318 316 315 315 315 315 316 316 316 315 313 311
290 291 297 302 302 300 300 306 315 325 332 336 339 341 345 346 346 346 346 346 344 342 341 340 338 337 337 336 337 338 338 338 337 335 331 327 324 321 319 318 317 318 318 319 320 320 318 316 314
288 287 289 290 290 290 291 296 303 314 323 327 330 333 337 340 342 344 345 345 345 344 342 341 340 338 337 336 336 337 337 338 338 337 334 330 327 324 321 320 320 321 322 323 323 323 321 318 316
280 272 268 271 276 281 285 288 292 300 309 314 316 320 326 331 335 339 342 343 345 345 344 343 342 340 338 337 336 336 336 337 337 337 335 332 329 326 324 323 323 324 326 326 326 325 323 321 319
270 266 265 268 272 276 279 282 287 292 299 303 306 310 317 322 327 333 336 339 342 343 344 343 342 341 339 338 337 336 336 336 336 336 336 334 331 329 327 326 327 328 329 329 329 327 326 324 322
269 267 267 269 271 273 276 280 285 289 293 297 300 304 310 318 323 328 332 335 338 340 341 342 342 341 340 339 338 336 336 336 336 336 336 335 333 331 330 329 330 331 332 332 331 329 328 327 325
270 269 268 269 271 274 277 280 286 289 292 295 298 302 309 315 319 323 327 330 333 336 338 339 340 340 340 339 338 337 336 335 336 336 336 335 334 333 332 332 333 334 334 334 333 331 329 329 329
270 270 269 270 271 274 278 281 286 289 292 295 298 302 307 312 317 320 324 326 329 332 335 336 338 339 339 339 338 337 336 336 336 336 336 336 335 335 334 334 335 336 336 336 334 332 331 331 331
271 270 269 269 271 274 277 281 288 289 292 294 298 302 306 310 314 318 321 324 326 329 332 334 335 336 337 337 337 337 337 336 336 336 336 336 336 336 336 336 337 338 338 337 335 334 334 333 333
273 271 271 270 271 274 275 279 288 288 291 294 297 301 304 308 312 316 319 322 324 326 329 331 332 334 335 335 336 336 337 336 336 336 337 337 337 337 337 338 338 339 339 338 337 336 336 335 335
274 272 272 272 273 273 274 279 287 288 291 294 297 300 302 305 309 313 316 318 321 323 326 328 330 331 332 333 334 335 336 337 337 337 337 337 338 338 338 339 340 340 340 340 339 338 337 337 337
277 272 271 272 274 274 275 280 283 287 289 292 295 297 299 303 306 310 313 316 318 320 323 325 327 329 330 330 332 334 335 337 337 337 337 338 338 339 339 340 341 342 342 341 340 339 339 339 338
279 276 273 272 275 276 277 279 285 284 286 290 292 294 298 301 305 308 310 313 315 318 320 323 325 326 328 328 330 332 334 336 337 337 338 338 339 340 340 341 342 343 343 342 342 341 341 341 340
282 280 278 276 276 278 280 282 285 285 288 290 292 294 297 300 303 306 309 311 313 315 318 321 323 324 325 327 328 330 333 335 336 337 338 338 339 340 341 341 342 344 344 343 343 342 342 342 342
284 282 279 278 278 278 282 287 288 286 288 289 290 293 296 299 301 304 306 308 311 313 316 318 320 322 323 325 326 329 331 334 335 336 337 338 339 340 341 342 343 344 345 344 344 344 343 344 344
Height
5885 5886 5886 5888 5889 5888 5888 5888 5887 5887 5888 5888 5888 5888 5888 5888 5889 5890 5888 5885 5884 5883 5882 5881 5880 5878 5877 5875 5873 5871 5870 5868 5866 5864 5862 5860 5858 5856 5854 5853 5851 5850 5848 5847 5846 5845 5844 5844 5843
5887 5887 5889 5889 5889 5889 5890 5889 5888 5888 5889 5888 5888 5888 5888 5887 5887 5886 5885 5884 5883 5882 5880 5879 5878 5876 5874 5872 5870 5868 5866 5863 5861 5859 5857 5854 5852 5850 5848 5846 5844 5843 5841 5840 5839 5838 5836 5835 5835
5890 5890 5891 5891 5890 5891 5891 5890 5889 5889 5889 5888 5888 5887 5887 5886 5886 5885 5884 5882 5881 5880 5878 5877 5875 5873 5871 5869 5866 5864 5862 5859 5856 5854 5851 5849 5846 5844 5841 5839 5837 5835 5833 5832 5830 5829 5828 5827 5825
5893 5893 5893 5893 5892 5892 5892 5891 5890 5890 5889 5888 5888 5887 5886 5886 5885 5883 5882 5880 5879 5878 5876 5874 5872 5870 5868 5865 5863 5860 5857 5854 5851 5848 5845 5842 5840 5837 5834 5832 5829 5827 5825 5822 5820 5818 5817 5815 5814
5895 5895 5895 5894 5894 5893 5892 5891 5891 5890 5889 5888 5887 5886 5885 5884 5883 5881 5879 5878 5876 5875 5873 5871 5868 5866 5863 5861 5858 5855 5852 5849 5846 5842 5839 5836 5833 5830 5827 5824 5821 5818 5815 5812 5809 5807 5805 5803 5801
5897 5897 5896 5896 5895 5894 5893 5891 5890 5889 5888 5887 5885 5884 5884 5883 5881 5879 5877 5875 5873 5871 5869 5867 5864 5861 5858 5856 5853 5849 5846 5843 5839 5836 5832 5829 5825 5821 5818 5815 5811 5808 5804 5801 5797 5794 5791 5788 5786
5899 5897 5896 5896 5895 5894 5893 5891 5889 5888 5887 5885 5883 5882 5881 5880 5878 5876 5874 5872 5870 5867 5865 5862 5860 5857 5853 5850 5847 5843 5840 5836 5832 5828 5825 5821 5817 5813 5809 5805 5801 5796 5792 5788 5784 5780 5776 5772 5768
5898 5898 5896 5895 5894 5892 5891 5889 5888 5886 5885 5883 5881 5880 5879 5878 5875 5873 5871 5869 5866 5864 5861 5858 5855 5852 5848 5845 5841 5837 5833 5829 5825 5821 5817 5812 5808 5803 5799 5794 5789 5784 5779 5774 5769 5764 5759 5753 5747
5897 5897 5894 5893 5891 5890 5889 5887 5886 5884 5882 5881 5879 5878 5877 5875 5873 5870 5868 5865 5863 5860 5857 5854 5850 5847 5843 5839 5835 5831 5827 5822 5818 5813 5808 5804 5799 5794 5788 5783 5778 5772 5767 5761 5754 5748 5741 5734 5726
5896 5895 5893 5891 5889 5887 5886 5884 5883 5881 5880 5878 5877 5875 5874 5872 5870 5868 5865 5862 5859 5856 5853 5849 5846 5842 5838 5834 5829 5825 5820 5815 5810 5805 5799 5794 5789 5784 5778 5772 5766 5760 5753 5746 5739 5731 5723 5714 5704
5894 5893 5891 5888 5886 5884 5883 5882 5880 5879 5877 5876 5875 5873 5871 5869 5867 5865 5862 5859 5855 5852 5848 5844 5841 5837 5832 5828 5823 5818 5813 5808 5802 5797 5791 5785 5779 5773 5767 5760 5754 5747 5740 5732 5724 5714 5704 5693 5682
5891 5889 5888 5886 5884 5882 5880 5879 5878 5876 5875 5874 5872 5871 5869 5867 5864 5862 5859 5855 5852 5848 5844 5840 5836 5832 5827 5822 5817 5811 5806 5800 5794 5788 5782 5776 5769 5763 5756 5750 5742 5735 5727 5718 5709 5698 5686 5672 5657
5889 5887 5885 5883 5881 5880 5878 5877 5875 5874 5872 5870 5869 5867 5866 5864 5862 5859 5856 5852 5848 5844 5840 5836 5832 5827 5822 5817 5811 5805 5799 5793 5787 5780 5774 5767 5760 5753 5746 5739 5731 5723 5714 5704 5693 5680 5665 5649 5631
5887 5885 5883 5881 5879 5878 5876 5875 5873 5872 5871 5868 5866 5865 5863 5861 5858 5856 5852 5849 5845 5841 5837 5832 5827 5822 5817 5811 5806 5800 5793 5787 5780 5773 5765 5758 5751 5743 5735 5727 5719 5709 5699 5688 5675 5659 5642 5623 5603
5885 5883 5881 5879 5877 5876 5874 5873 5871 5870 5868 5867 5865 5863 5860 5858 5855 5852 5849 5845 5841 5837 5833 5828 5823 5817 5812 5806 5800 5794 5787 5780 5772 5765 5757 5749 5741 5733 5724 5715 5705 5695 5683 5670 5654 5636 5617 5596 5575
5883 5881 5880 5878 5876 5874 5874 5871 5870 5867 5866 5864 5862 5860 5858 5855 5852 5849 5846 5842 5837 5833 5829 5823 5818 5812 5807 5801 5794 5787 5780 5772 5764 5756 5748 5739 5730 5721 5712 5702 5691 5679 5666 5650 5633 5613 5592 5570 5550
5881 5879 5877 5876 5874 5872 5870 5869 5867 5865 5863 5861 5859 5857 5854 5852 5849 5846 5842 5838 5834 5829 5824 5819 5813 5807 5801 5794 5788 5780 5773 5765 5756 5747 5738 5729 5719 5709 5699 5688 5676 5662 5647 5629 5610 5588 5566 5546 5527
5880 5877 5875 5874 5872 5870 5868 5867 5865 5863 5861 5859 5857 5854 5851 5848 5845 5842 5838 5834 5830 5825 5819 5813 5807 5801 5794 5787 5780 5772 5764 5756 5747 5737 5728 5717 5707 5696 5685 5673 5660 5645 5628 5608 5587 5565 5543 5522 5504
5877 5876 5874 5872 5870 5868 5866 5865 5863 5861 5859 5857 5854 5851 5848 5845 5842 5838 5834 5830 5825 5820 5814 5808 5801 5795 5788 5780 5772 5764 5756 5747 5737 5727 5717 5706 5694 5683 5671 5658 5643 5627 5609 5588 5566 5545 5524 5503 5483
5874 5873 5871 5869 5867 5866 5864 5863 5861 5858 5856 5854 5852 5849 5845 5841 5837 5833 5829 5825 5820 5814 5808 5802 5795 5788 5780 5773 5764 5756 5747 5737 5728 5717 5706 5694 5682 5669 5656 5642 5626 5609 5590 5568 5547 5525 5505 5486 5465
5871 5869 5868 5866 5865 5863 5861 5860 5858 5855 5853 5851 5848 5845 5842 5838 5834 5829 5824 5819 5814 5808 5802 5796 5788 5781 5773 5764 5756 5747 5738 5728 5718 5706 5694 5682 5669 5656 5641 5626 5610 5591 5572 5550 5529 5508 5488 5470 5452
5867 5865 5864 5862 5861 5859 5858 5856 5854 5851 5848 5846 5844 5841 5837 5833 5829 5824 5819 5814 5808 5802 5796 5789 5781 5773 5765 5756 5747 5738 5729 5719 5708 5696 5683 5669 5656 5642 5627 5611 5594 5575 5555 5533 5512 5492 5472 5454 5437
5863 5861 5860 5858 5856 5855 5853 5851 5851 5847 5844 5841 5839 5835 5831 5828 5823 5818 5813 5808 5801 5795 5788 5781 5773 5765 5757 5748 5739 5730 5720 5709 5697 5685 5671 5658 5643 5628 5613 5596 5579 5560 5539 5519 5498 5478 5459 5440 5422
5858 5856 5854 5852 5850 5850 5848 5845 5845 5842 5839 5836 5833 5829 5825 5821 5817 5812 5807 5801 5794 5787 5780 5773 5765 5757 5749 5740 5731 5721 5710 5699 5687 5674 5661 5646 5631 5616 5600 5583 5565 5546 5526 5506 5486 5466 5448 5429 5411
5853 5851 5849 5846 5845 5844 5841 5838 5840 5837 5834 5830 5827 5823 5819 5815 5810 5805 5799 5793 5787 5780 5773 5765 5758 5749 5741 5732 5722 5712 5701 5689 5677 5664 5650 5636 5620 5604 5587 5570 5552 5533 5514 5494 5475 5456 5438 5419 5402
5847 5846 5844 5840 5838 5837 5834 5832 5835 5831 5827 5823 5820 5817 5812 5808 5803 5798 5792 5786 5779 5772 5765 5757 5750 5741 5733 5723 5713 5703 5692 5680 5668 5655 5641 5625 5610 5594 5577 5560 5541 5523 5503 5484 5465 5446 5429 5411 5393
5841 5839 5837 5833 5830 5828 5826 5826 5827 5824 5819 5816 5813 5809 5805 5800 5795 5790 5784 5778 5771 5764 5757 5749 5741 5733 5724 5715 5705 5694 5683 5671 5658 5645 5631 5616 5600 5584 5567 5550 5532 5513 5494 5475 5456 5438 5421 5403 5386
5835 5832 5830 5826 5821 5818 5818 5818 5820 5817 5813 5809 5805 5801 5797 5792 5787 5782 5776 5770 5763 5756 5748 5741 5733 5724 5715 5706 5696 5685 5674 5662 5649 5636 5621 5606 5590 5574 5557 5540 5522 5504 5485 5467 5449 5431 5414 5397 5380
5829 5826 5822 5818 5814 5810 5807 5812 5813 5809 5804 5800 5796 5792 5788 5784 5778 5773 5767 5761 5754 5747 5739 5732 5723 5715 5706 5697 5687 5676 5665 5653 5640 5627 5612 5597 5581 5565 5548 5531 5514 5496 5478 5460 5442 5425 5408 5392 5375
5821 5819 5815 5811 5808 5802 5796 5802 5807 5801 5795 5790 5786 5782 5778 5774 5769 5764 5758 5752 5745 5738 5730 5722 5714 5705 5697 5687 5678 5667 5656 5644 5631 5618 5603 5588 5572 5556 5540 5523 5506 5489 5471 5453 5436 5419 5403 5387 5371